| time (UTC) | temp F | wind direction | speed MPH | gust MPH | rain 1hr in | rain 24hr in | rain mn in | humidity % | barometer mb |
| 20260831001518 | 71 | 273 | 2.0 | 5.0 | 0.00 | 0.00 | 0.00 | 72 | 1023.6 |
| 20260831000024 | 71 | 293 | 1.0 | 5.0 | 0.00 | 0.00 | 0.00 | 72 | 1023.5 |
| 20260830234531 | 71 | 290 | 3.0 | 5.0 | 0.00 | 0.00 | 0.00 | 73 | 1023.4 |
| 20260830233017 | 72 | 292 | 1.0 | 3.0 | 0.00 | 0.00 | 0.00 | 73 | 1023.3 |
| 20260830231516 | 72 | 306 | 1.0 | 5.0 | 0.00 | 0.00 | 0.00 | 73 | 1023.2 |
| 20260830230023 | 72 | 305 | 2.0 | 5.0 | 0.00 | 0.00 | 0.00 | 73 | 1023.4 |
| 20260830224516 | 72 | 262 | 2.0 | 6.0 | 0.00 | 0.00 | 0.00 | 72 | 1023.2 |
| 20260830223016 | 72 | 258 | 2.0 | 4.0 | 0.00 | 0.00 | 0.00 | 72 | 1023.2 |
| 20260830221523 | 72 | 241 | 2.0 | 5.0 | 0.00 | 0.00 | 0.00 | 72 | 1023.2 |
| 20260830220014 | 72 | 259 | 3.0 | 5.0 | 0.00 | 0.00 | 0.00 | 71 | 1023.1 |
| 20260830214513 | 72 | 286 | 3.0 | 6.0 | 0.00 | 0.00 | 0.00 | 70 | 1023.1 |
| 20260830213019 | 73 | 258 | 3.0 | 8.0 | 0.00 | 0.00 | 0.00 | 70 | 1023.1 |
| 20260830211513 | 73 | 270 | 3.0 | 9.0 | 0.00 | 0.00 | 0.00 | 71 | 1023.1 |
| 20260830210012 | 72 | 235 | 4.0 | 8.0 | 0.00 | 0.00 | 0.00 | 70 | 1023.3 |
| 20260830204519 | 73 | 201 | 4.0 | 8.0 | 0.00 | 0.00 | 0.00 | 68 | 1023.2 |
| 20260830203011 | 74 | 14 | 1.0 | 4.0 | 0.00 | 0.00 | 0.00 | 66 | 1023.4 |
| 20260830201511 | 74 | 14 | 1.0 | 5.0 | 0.00 | 0.00 | 0.00 | 65 | 1023.0 |
| 20260830200010 | 75 | 20 | 2.0 | 6.0 | 0.00 | 0.00 | 0.00 | 64 | 1022.9 |
| 20260830194510 | 75 | 325 | 3.0 | 10.0 | 0.00 | 0.00 | 0.00 | 64 | 1023.0 |
| 20260830193009 | 77 | 316 | 6.0 | 12.0 | 0.00 | 0.00 | 0.00 | 64 | 1023.0 |
| 20260830191508 | 77 | 261 | 3.0 | 7.0 | 0.00 | 0.00 | 0.00 | 63 | 1022.8 |
| 20260830190008 | 78 | 245 | 3.0 | 6.0 | 0.00 | 0.00 | 0.00 | 60 | 1022.8 |
| 20260830184517 | 78 | 253 | 3.0 | 8.0 | 0.00 | 0.00 | 0.00 | 59 | 1022.7 |
| 20260830183007 | 78 | 262 | 4.0 | 8.0 | 0.00 | 0.00 | 0.00 | 58 | 1022.7 |
| 20260830181506 | 79 | 308 | 3.0 | 8.0 | 0.00 | 0.00 | 0.00 | 59 | 1022.8 |
| 20260830180009 | 79 | 262 | 3.0 | 9.0 | 0.00 | 0.00 | 0.00 | 58 | 1022.9 |
| 20260830174504 | 79 | 317 | 2.0 | 7.0 | 0.00 | 0.00 | 0.00 | 59 | 1022.9 |
| 20260830173005 | 77 | 222 | 3.0 | 10.0 | 0.00 | 0.00 | 0.00 | 61 | 1023.2 |
| 20260830171501 | 78 | 247 | 4.0 | 10.0 | 0.00 | 0.00 | 0.00 | 60 | 1023.2 |
| 20260830170103 | 77 | 246 | 7.0 | 11.0 | 0.00 | 0.00 | 0.00 | 61 | 1023.3 |
| 20260830164609 | 77 | 298 | 3.0 | 9.0 | 0.00 | 0.00 | 0.00 | 62 | 1023.5 |
| 20260830163109 | 76 | 206 | 5.0 | 12.0 | 0.00 | 0.00 | 0.00 | 64 | 1023.7 |
| 20260830161554 | 76 | 275 | 6.0 | 10.0 | 0.00 | 0.00 | 0.00 | 64 | 1023.9 |
| 20260830160050 | 75 | 226 | 3.0 | 8.0 | 0.00 | 0.00 | 0.00 | 64 | 1024.0 |
| 20260830154554 | 74 | 261 | 2.0 | 10.0 | 0.00 | 0.00 | 0.00 | 67 | 1024.2 |
| 20260830153048 | 74 | 270 | 2.0 | 5.0 | 0.00 | 0.00 | 0.00 | 68 | 1024.2 |
| 20260830151543 | 72 | 294 | 1.0 | 4.0 | 0.00 | 0.00 | 0.00 | 69 | 1024.3 |
| 20260830150042 | 72 | 298 | 0.0 | 4.0 | 0.00 | 0.00 | 0.00 | 70 | 1024.4 |
| 20260830144535 | 70 | 88 | 0.0 | 2.0 | 0.00 | 0.00 | 0.00 | 73 | 1024.5 |
| 20260830143033 | 69 | 116 | 0.0 | 3.0 | 0.00 | 0.00 | 0.00 | 75 | 1024.6 |
| 20260830141533 | 68 | 155 | 0.0 | 2.0 | 0.00 | 0.00 | 0.00 | 75 | 1024.3 |
| 20260830140026 | 67 | 155 | 0.0 | 2.0 | 0.00 | 0.00 | 0.00 | 77 | 1024.6 |
| 20260830134525 | 65 | 155 | 0.0 | 2.0 | 0.00 | 0.00 | 0.00 | 80 | 1024.6 |
| 20260830133023 | 64 | 155 | 0.0 | 2.0 | 0.00 | 0.00 | 0.00 | 82 | 1024.9 |
| 20260830131525 | 64 | 155 | 1.0 | 3.0 | 0.00 | 0.00 | 0.00 | 83 | 1025.1 |
| 20260830130013 | 63 | 155 | 1.0 | 2.0 | 0.00 | 0.00 | 0.00 | 84 | 1025.2 |
| 20260830124512 | 63 | 155 | 1.0 | 3.0 | 0.00 | 0.00 | 0.00 | 84 | 1025.2 |
| 20260830123010 | 62 | 155 | 1.0 | 2.0 | 0.00 | 0.00 | 0.00 | 85 | 1025.3 |
| 20260830121509 | 62 | 155 | 0.0 | 2.0 | 0.00 | 0.00 | 0.00 | 85 | 1025.4 |
| 20260830120008 | 61 | 155 | 1.0 | 3.0 | 0.00 | 0.00 | 0.00 | 85 | 1025.4 |
| 20260830114508 | 61 | 184 | 1.0 | 3.0 | 0.00 | 0.00 | 0.00 | 85 | 1025.5 |
| 20260830113005 | 61 | 184 | 0.0 | 1.0 | 0.00 | 0.00 | 0.00 | 85 | 1025.8 |
| 20260830111505 | 61 | 184 | 1.0 | 2.0 | 0.00 | 0.00 | 0.00 | 85 | 1026.0 |
| 20260830110005 | 60 | 185 | 0.0 | 2.0 | 0.00 | 0.00 | 0.00 | 85 | 1025.9 |
| 20260830104503 | 60 | 185 | 0.0 | 1.0 | 0.00 | 0.00 | 0.00 | 84 | 1025.8 |
| 20260830103007 | 60 | 185 | 0.0 | 2.0 | 0.00 | 0.00 | 0.00 | 84 | 1025.8 |
| 20260830101501 | 60 | 185 | 0.0 | 1.0 | 0.00 | 0.00 | 0.00 | 84 | 1025.7 |
| 20260830100122 | 60 | 185 | 0.0 | 1.0 | 0.00 | 0.00 | 0.00 | 84 | 1025.9 |
| 20260830094559 | 61 | 185 | 0.0 | 1.0 | 0.00 | 0.00 | 0.00 | 84 | 1025.9 |
| 20260830093101 | 61 | 186 | 0.0 | 1.0 | 0.00 | 0.00 | 0.00 | 83 | 1026.1 |
| 20260830091557 | 61 | 188 | 0.0 | 2.0 | 0.00 | 0.00 | 0.00 | 83 | 1026.1 |
| 20260830090054 | 61 | 186 | 0.0 | 2.0 | 0.00 | 0.00 | 0.00 | 83 | 1026.2 |
| 20260830084554 | 62 | 186 | 0.0 | 1.0 | 0.00 | 0.00 | 0.00 | 83 | 1026.2 |
| 20260830083055 | 62 | 186 | 0.0 | 2.0 | 0.00 | 0.00 | 0.00 | 83 | 1026.3 |
| 20260830081553 | 62 | 186 | 0.0 | 2.0 | 0.00 | 0.00 | 0.00 | 83 | 1026.4 |
| 20260830080052 | 62 | 187 | 0.0 | 1.0 | 0.00 | 0.00 | 0.00 | 83 | 1026.6 |
| 20260830074549 | 62 | 186 | 0.0 | 2.0 | 0.00 | 0.00 | 0.00 | 82 | 1026.6 |
| 20260830073053 | 62 | 186 | 1.0 | 3.0 | 0.00 | 0.00 | 0.00 | 82 | 1026.7 |
| 20260830071546 | 0 | 0.0 | 0.0 | 0.00 | 0.00 | 0.00 | 1026.7 | ||
| 20260830070042 | 0 | 0.0 | 0.0 | 0.00 | 0.00 | 0.00 | 1026.8 | ||
| 20260830064538 | 0 | 0.0 | 0.0 | 0.00 | 0.00 | 0.00 | 1026.7 | ||
| 20260830063034 | 0 | 0.0 | 0.0 | 0.00 | 0.00 | 0.00 | 1026.7 | ||
| 20260830061528 | 0 | 0.0 | 0.0 | 0.00 | 0.00 | 0.00 | 1026.6 | ||
| 20260830060028 | 0 | 0.0 | 0.0 | 0.00 | 0.00 | 0.00 | 1026.7 | ||
| 20260830054522 | 0 | 0.0 | 0.0 | 0.00 | 0.00 | 0.00 | 1026.7 | ||
| 20260830053019 | 0 | 0.0 | 0.0 | 0.00 | 0.00 | 0.00 | 1026.6 | ||
| 20260830051512 | 0 | 0.0 | 0.0 | 0.00 | 0.00 | 0.00 | 1026.6 | ||
| 20260830050008 | 0 | 0.0 | 0.0 | 0.00 | 0.00 | 0.00 | 1026.7 | ||
| 20260830044504 | 0 | 0.0 | 0.0 | 0.00 | 0.00 | 0.00 | 1026.7 | ||
| 20260830043103 | 0 | 0.0 | 0.0 | 0.00 | 0.00 | 0.00 | 1026.9 | ||
| 20260830041607 | 0 | 0.0 | 0.0 | 0.00 | 0.00 | 0.00 | 1026.9 | ||
| 20260830040056 | 0 | 0.0 | 0.0 | 0.00 | 0.00 | 0.00 | 1026.7 | ||
| 20260830034546 | 0 | 0.0 | 0.0 | 0.00 | 0.00 | 0.00 | 1026.6 | ||
| 20260830033041 | 0 | 0.0 | 0.0 | 0.00 | 0.00 | 0.00 | 1026.6 | ||
| 20260830031543 | 0 | 0.0 | 0.0 | 0.00 | 0.00 | 0.00 | 1026.6 | ||
| 20260830030034 | 0 | 0.0 | 0.0 | 0.00 | 0.00 | 0.00 | 1026.9 | ||
| 20260830024528 | 0 | 0.0 | 0.0 | 0.00 | 0.00 | 0.00 | 1026.9 | ||
| 20260830023025 | 0 | 0.0 | 0.0 | 0.00 | 0.00 | 0.00 | 1027.0 | ||
| 20260830021520 | 0 | 0.0 | 0.0 | 0.00 | 0.00 | 0.00 | 1027.1 | ||
| 20260830020025 | 0 | 0.0 | 0.0 | 0.00 | 0.00 | 0.00 | 1026.9 | ||
| 20260830014511 | 0 | 0.0 | 0.0 | 0.00 | 0.00 | 0.00 | 1026.9 | ||
| 20260830013007 | 0 | 0.0 | 0.0 | 0.00 | 0.00 | 0.00 | 1026.7 | ||
| 20260830011503 | 0 | 0.0 | 0.0 | 0.00 | 0.00 | 0.00 | 1026.6 | ||
| 20260830010107 | 0 | 0.0 | 0.0 | 0.00 | 0.00 | 0.00 | 1026.5 | ||
| 20260830004605 | 0 | 0.0 | 0.0 | 0.00 | 0.00 | 0.00 | 1026.5 | ||
| 20260830003106 | 0 | 0.0 | 0.0 | 0.00 | 0.00 | 0.00 | 1026.4 |